Saint Bonnet de Bellac- Haute Vienne - France
Donnes mto: mardi, 20/03/2012
Date Horaire Temp. E. Hum. E. P.atmo. Pluie Vent Direction Direction Ensoleilleme Solaire P. de rose Temp au vent Rafales
20/03/2012 00:00 0,9 C 86 % 1033,7 hPa 0,0 mm 0,0 km/h (0 Bft) E-NE 67 0 min 0 W/m -1,2 C 0,9 C 0,0 km/h (0 Bft)
20/03/2012 00:10 0,8 C 87 % 1033,7 hPa 0,0 mm 0,0 km/h (0 Bft) E-NE 67 0 min 0 W/m -1,1 C 0,8 C 0,0 km/h (0 Bft)
20/03/2012 00:20 0,8 C 87 % 1033,6 hPa 0,0 mm 0,0 km/h (0 Bft) E-NE 67 0 min 0 W/m -1,1 C 0,8 C 0,0 km/h (0 Bft)
20/03/2012 00:30 0,6 C 88 % 1033,6 hPa 0,0 mm 0,0 km/h (0 Bft) E-NE 67 0 min 0 W/m -1,2 C 0,6 C 0,0 km/h (0 Bft)
20/03/2012 00:40 0,6 C 87 % 1033,5 hPa 0,0 mm 0,0 km/h (0 Bft) E-NE 67 0 min 0 W/m -1,3 C 0,6 C 0,0 km/h (0 Bft)
20/03/2012 00:50 0,6 C 87 % 1033,3 hPa 0,0 mm 0,0 km/h (0 Bft) E-NE 67 0 min 0 W/m -1,3 C 0,6 C 0,0 km/h (0 Bft)
20/03/2012 01:00 0,4 C 88 % 1033,3 hPa 0,0 mm 0,0 km/h (0 Bft) E-NE 67 0 min 0 W/m -1,3 C 0,4 C 0,0 km/h (0 Bft)
20/03/2012 01:10 0,3 C 88 % 1033,3 hPa 0,0 mm 0,0 km/h (0 Bft) E-NE 67 0 min 0 W/m -1,4 C 0,3 C 0,0 km/h (0 Bft)
20/03/2012 01:20 0,2 C 88 % 1033,2 hPa 0,0 mm 0,0 km/h (0 Bft) E-NE 67 0 min 0 W/m -1,5 C 0,2 C 0,0 km/h (0 Bft)
20/03/2012 01:30 0,1 C 89 % 1033,3 hPa 0,0 mm 0,0 km/h (0 Bft) E-NE 67 0 min 0 W/m -1,5 C 0,1 C 0,0 km/h (0 Bft)
20/03/2012 01:40 0,1 C 89 % 1033,4 hPa 0,0 mm 0,0 km/h (0 Bft) E-NE 67 0 min 0 W/m -1,5 C 0,1 C 0,0 km/h (0 Bft)
20/03/2012 01:50 0,0 C 89 % 1033,3 hPa 0,0 mm 0,0 km/h (0 Bft) E-NE 67 0 min 0 W/m -1,6 C 0,0 C 0,0 km/h (0 Bft)
20/03/2012 02:02 -0,1 C 88 % 1033,3 hPa 0,0 mm 0,0 km/h (0 Bft) E-NE 67 0 min 0 W/m -1,8 C -0,1 C 0,0 km/h (0 Bft)
20/03/2012 02:10 -0,2 C 88 % 1033,4 hPa 0,0 mm 0,0 km/h (0 Bft) E-NE 67 0 min 0 W/m -1,9 C -0,2 C 0,0 km/h (0 Bft)
20/03/2012 02:20 -0,2 C 88 % 1033,3 hPa 0,0 mm 0,0 km/h (0 Bft) E-NE 67 0 min 0 W/m -1,9 C -0,2 C 0,0 km/h (0 Bft)
20/03/2012 02:30 -0,4 C 88 % 1033,2 hPa 0,0 mm 0,0 km/h (0 Bft) E-NE 67 0 min 0 W/m -2,1 C -0,4 C 0,0 km/h (0 Bft)
20/03/2012 02:40 -0,5 C 89 % 1033,2 hPa 0,0 mm 0,0 km/h (0 Bft) E-NE 67 0 min 0 W/m -2,1 C -0,5 C 0,0 km/h (0 Bft)
20/03/2012 02:50 -0,6 C 89 % 1033,2 hPa 0,0 mm 0,0 km/h (0 Bft) E-NE 67 0 min 0 W/m -2,2 C -0,6 C 0,0 km/h (0 Bft)
20/03/2012 03:00 -0,6 C 89 % 1033,2 hPa 0,0 mm 0,4 km/h (0 Bft) NE 45 0 min 0 W/m -2,2 C -0,6 C 0,4 km/h (0 Bft)
20/03/2012 03:10 -0,6 C 89 % 1033,2 hPa 0,0 mm 0,0 km/h (0 Bft) NE 45 0 min 0 W/m -2,2 C -0,6 C 0,0 km/h (0 Bft)
20/03/2012 03:20 -0,5 C 89 % 1033,3 hPa 0,0 mm 0,0 km/h (0 Bft) E-NE 67 0 min 0 W/m -2,1 C -0,5 C 0,0 km/h (0 Bft)
20/03/2012 03:30 -0,6 C 89 % 1033,2 hPa 0,0 mm 0,0 km/h (0 Bft) E-NE 67 0 min 0 W/m -2,2 C -0,6 C 0,0 km/h (0 Bft)
20/03/2012 03:40 -0,7 C 89 % 1033,2 hPa 0,0 mm 0,0 km/h (0 Bft) E-NE 67 0 min 0 W/m -2,3 C -0,7 C 0,0 km/h (0 Bft)
20/03/2012 03:50 -0,7 C 89 % 1033,1 hPa 0,0 mm 0,0 km/h (0 Bft) N-NE 22 0 min 0 W/m -2,3 C -0,7 C 0,0 km/h (0 Bft)
20/03/2012 04:00 -0,7 C 90 % 1033,1 hPa 0,0 mm 0,0 km/h (0 Bft) N-NE 22 0 min 0 W/m -2,1 C -0,7 C 0,0 km/h (0 Bft)
20/03/2012 04:10 -0,7 C 90 % 1033,0 hPa 0,0 mm 0,0 km/h (0 Bft) N-NE 22 0 min 0 W/m -2,1 C -0,7 C 0,0 km/h (0 Bft)
20/03/2012 04:20 -0,8 C 90 % 1032,9 hPa 0,0 mm 0,0 km/h (0 Bft) N-NE 22 0 min 0 W/m -2,2 C -0,8 C 0,0 km/h (0 Bft)
20/03/2012 04:30 -0,9 C 90 % 1032,9 hPa 0,0 mm 0,0 km/h (0 Bft) N-NE 22 0 min 0 W/m -2,3 C -0,9 C 0,0 km/h (0 Bft)
20/03/2012 04:40 -1,1 C 90 % 1032,9 hPa 0,0 mm 0,0 km/h (0 Bft) N-NE 22 0 min 0 W/m -2,5 C -1,1 C 0,0 km/h (0 Bft)
20/03/2012 04:50 -1,2 C 90 % 1033,0 hPa 0,0 mm 0,0 km/h (0 Bft) N-NE 22 0 min 0 W/m -2,6 C -1,2 C 0,0 km/h (0 Bft)
20/03/2012 05:00 -1,4 C 90 % 1033,0 hPa 0,0 mm 0,0 km/h (0 Bft) N-NE 22 0 min 0 W/m -2,8 C -1,4 C 0,0 km/h (0 Bft)
20/03/2012 05:10 -1,5 C 90 % 1033,0 hPa 0,0 mm 0,0 km/h (0 Bft) N-NE 22 0 min 0 W/m -2,9 C -1,5 C 0,0 km/h (0 Bft)
20/03/2012 05:20 -1,7 C 90 % 1033,0 hPa 0,0 mm 0,0 km/h (0 Bft) N-NE 22 0 min 0 W/m -3,1 C -1,7 C 0,0 km/h (0 Bft)
20/03/2012 05:30 -1,7 C 90 % 1033,0 hPa 0,0 mm 0,0 km/h (0 Bft) N-NE 22 0 min 0 W/m -3,1 C -1,7 C 0,0 km/h (0 Bft)
20/03/2012 05:40 -1,7 C 90 % 1033,0 hPa 0,0 mm 0,0 km/h (0 Bft) N-NE 22 0 min 0 W/m -3,1 C -1,7 C 0,0 km/h (0 Bft)
20/03/2012 05:50 -1,8 C 90 % 1033,1 hPa 0,0 mm 0,0 km/h (0 Bft) N-NE 22 0 min 0 W/m -3,2 C -1,8 C 0,0 km/h (0 Bft)
20/03/2012 06:00 -1,9 C 90 % 1033,1 hPa 0,0 mm 0,0 km/h (0 Bft) N-NE 22 0 min 0 W/m -3,3 C -1,9 C 0,0 km/h (0 Bft)
20/03/2012 06:10 -1,9 C 90 % 1033,2 hPa 0,0 mm 0,0 km/h (0 Bft) N-NE 22 0 min 0 W/m -3,3 C -1,9 C 0,0 km/h (0 Bft)
20/03/2012 06:20 -1,9 C 91 % 1033,1 hPa 0,0 mm 0,0 km/h (0 Bft) N-NE 22 0 min 0 W/m -3,2 C -1,9 C 0,0 km/h (0 Bft)
20/03/2012 06:30 -1,9 C 91 % 1033,1 hPa 0,0 mm 0,0 km/h (0 Bft) N-NE 22 0 min 0 W/m -3,2 C -1,9 C 0,0 km/h (0 Bft)
20/03/2012 06:40 -1,8 C 91 % 1033,1 hPa 0,0 mm 0,0 km/h (0 Bft) N-NE 22 0 min 0 W/m -3,1 C -1,8 C 0,0 km/h (0 Bft)
20/03/2012 06:50 -1,8 C 91 % 1033,1 hPa 0,0 mm 0,0 km/h (0 Bft) N-NE 22 0 min 0 W/m -3,1 C -1,8 C 0,0 km/h (0 Bft)
20/03/2012 07:00 -1,9 C 91 % 1033,2 hPa 0,0 mm 0,0 km/h (0 Bft) N-NE 22 0 min 0 W/m -3,2 C -1,9 C 0,0 km/h (0 Bft)
20/03/2012 07:10 -1,7 C 91 % 1033,2 hPa 0,0 mm 0,0 km/h (0 Bft) N-NE 22 2 min 0 W/m -3,0 C -1,7 C 0,0 km/h (0 Bft)
20/03/2012 07:20 -1,5 C 91 % 1033,3 hPa 0,0 mm 0,0 km/h (0 Bft) N-NE 22 2 min 0 W/m -2,8 C -1,5 C 0,0 km/h (0 Bft)
20/03/2012 07:30 -1,2 C 91 % 1033,4 hPa 0,0 mm 0,0 km/h (0 Bft) N-NE 22 2 min 0 W/m -2,5 C -1,2 C 0,0 km/h (0 Bft)
20/03/2012 07:40 -0,9 C 92 % 1033,5 hPa 0,0 mm 0,0 km/h (0 Bft) E 90 2 min 0 W/m -2,0 C -0,9 C 0,0 km/h (0 Bft)
20/03/2012 07:50 -0,4 C 92 % 1033,5 hPa 0,0 mm 0,0 km/h (0 Bft) E 90 2 min 0 W/m -1,5 C -0,4 C 0,0 km/h (0 Bft)
20/03/2012 08:00 0,0 C 92 % 1033,6 hPa 0,0 mm 0,0 km/h (0 Bft) E 90 2 min 0 W/m -1,1 C 0,0 C 0,0 km/h (0 Bft)
20/03/2012 08:10 0,3 C 92 % 1033,6 hPa 0,0 mm 0,0 km/h (0 Bft) E 90 2 min 0 W/m -0,8 C 0,3 C 0,0 km/h (0 Bft)
20/03/2012 08:20 0,9 C 92 % 1033,6 hPa 0,0 mm 0,0 km/h (0 Bft) E 90 2 min 0 W/m -0,2 C 0,9 C 0,0 km/h (0 Bft)
20/03/2012 08:30 1,6 C 93 % 1033,6 hPa 0,0 mm 0,0 km/h (0 Bft) E 90 2 min 0 W/m 0,6 C 1,6 C 0,0 km/h (0 Bft)
20/03/2012 08:40 2,1 C 93 % 1033,6 hPa 0,0 mm 0,0 km/h (0 Bft) E 90 2 min 0 W/m 1,1 C 2,1 C 0,0 km/h (0 Bft)
20/03/2012 08:50 2,6 C 92 % 1033,9 hPa 0,0 mm 0,0 km/h (0 Bft) E 90 2 min 0 W/m 1,4 C 2,6 C 0,0 km/h (0 Bft)
20/03/2012 09:00 3,2 C 93 % 1034,0 hPa 0,0 mm 0,0 km/h (0 Bft) E 90 2 min 0 W/m 2,2 C 3,2 C 0,0 km/h (0 Bft)
20/03/2012 09:10 3,8 C 93 % 1034,1 hPa 0,0 mm 0,0 km/h (0 Bft) E 90 2 min 0 W/m 2,8 C 3,8 C 0,0 km/h (0 Bft)
20/03/2012 09:20 4,6 C 92 % 1034,1 hPa 0,0 mm 0,0 km/h (0 Bft) E 90 2 min 0 W/m 3,4 C 4,6 C 0,0 km/h (0 Bft)
20/03/2012 09:30 5,4 C 91 % 1034,1 hPa 0,0 mm 0,0 km/h (0 Bft) E 90 2 min 0 W/m 4,1 C 5,4 C 0,0 km/h (0 Bft)
20/03/2012 09:40 5,9 C 88 % 1034,2 hPa 0,0 mm 2,9 km/h (1 Bft) E-NE 67 2 min 0 W/m 4,1 C 5,9 C 4,3 km/h (1 Bft)
20/03/2012 09:50 6,3 C 86 % 1034,3 hPa 0,0 mm 0,4 km/h (0 Bft) NE 45 2 min 0 W/m 4,1 C 6,3 C 3,2 km/h (1 Bft)
20/03/2012 10:00 6,6 C 85 % 1034,3 hPa 0,0 mm 0,0 km/h (0 Bft) N-NE 22 2 min 0 W/m 4,3 C 6,6 C 0,0 km/h (0 Bft)
20/03/2012 10:10 7,0 C 84 % 1034,3 hPa 0,0 mm 1,4 km/h (1 Bft) NE 45 2 min 0 W/m 4,5 C 7,0 C 4,3 km/h (1 Bft)
20/03/2012 10:20 7,8 C 82 % 1034,3 hPa 0,0 mm 3,2 km/h (1 Bft) N-NE 22 2 min 0 W/m 4,9 C 7,8 C 6,5 km/h (2 Bft)
20/03/2012 10:30 8,3 C 78 % 1034,4 hPa 0,0 mm 6,5 km/h (2 Bft) N 360 2 min 0 W/m 4,7 C 7,4 C 7,9 km/h (2 Bft)
20/03/2012 10:40 8,6 C 77 % 1034,4 hPa 0,0 mm 3,2 km/h (1 Bft) N-NE 22 2 min 0 W/m 4,8 C 8,6 C 3,2 km/h (1 Bft)
20/03/2012 10:50 9,3 C 75 % 1034,2 hPa 0,0 mm 4,0 km/h (1 Bft) NE 45 2 min 0 W/m 5,1 C 9,3 C 7,6 km/h (2 Bft)
20/03/2012 11:00 9,8 C 72 % 1034,2 hPa 0,0 mm 5,4 km/h (2 Bft) E 90 2 min 0 W/m 5,0 C 9,4 C 8,6 km/h (2 Bft)
20/03/2012 11:10 10,3 C 69 % 1034,2 hPa 0,0 mm 8,3 km/h (2 Bft) N-NE 22 2 min 0 W/m 4,9 C 10,3 C 9,4 km/h (2 Bft)
20/03/2012 11:20 10,8 C 67 % 1034,1 hPa 0,0 mm 4,3 km/h (1 Bft) NE 45 2 min 0 W/m 4,9 C 10,8 C 6,5 km/h (2 Bft)
20/03/2012 11:30 11,4 C 66 % 1033,9 hPa 0,0 mm 4,7 km/h (1 Bft) N 360 2 min 0 W/m 5,3 C 11,4 C 11,2 km/h (2 Bft)
20/03/2012 11:40 11,8 C 64 % 1033,8 hPa 0,0 mm 5,0 km/h (1 Bft) N-NE 22 2 min 0 W/m 5,2 C 11,8 C 8,3 km/h (2 Bft)
20/03/2012 11:50 12,1 C 63 % 1033,8 hPa 0,0 mm 11,9 km/h (2 Bft) NE 45 2 min 0 W/m 5,3 C 12,1 C 11,9 km/h (2 Bft)
20/03/2012 12:00 12,2 C 61 % 1033,7 hPa 0,0 mm 5,8 km/h (2 Bft) N-NE 22 2 min 0 W/m 4,9 C 12,2 C 10,1 km/h (2 Bft)
20/03/2012 12:10 12,3 C 61 % 1033,6 hPa 0,0 mm 5,8 km/h (2 Bft) E-NE 67 2 min 0 W/m 5,0 C 12,3 C 10,1 km/h (2 Bft)
20/03/2012 12:20 12,4 C 61 % 1033,5 hPa 0,0 mm 12,2 km/h (2 Bft) N-NE 22 2 min 0 W/m 5,1 C 12,4 C 17,3 km/h (3 Bft)
20/03/2012 12:30 12,8 C 59 % 1033,5 hPa 0,0 mm 10,1 km/h (2 Bft) NE 45 2 min 0 W/m 5,0 C 12,8 C 14,0 km/h (3 Bft)
20/03/2012 12:40 12,7 C 58 % 1033,4 hPa 0,0 mm 14,4 km/h (3 Bft) N-NE 22 2 min 0 W/m 4,7 C 12,7 C 22,7 km/h (4 Bft)
20/03/2012 12:50 12,3 C 59 % 1033,4 hPa 0,0 mm 2,5 km/h (1 Bft) N-NE 22 2 min 0 W/m 4,5 C 12,3 C 4,7 km/h (1 Bft)
20/03/2012 13:00 11,8 C 59 % 1033,3 hPa 0,0 mm 6,5 km/h (2 Bft) NE 45 2 min 0 W/m 4,1 C 11,8 C 9,4 km/h (2 Bft)
20/03/2012 13:10 11,6 C 60 % 1033,4 hPa 0,0 mm 7,6 km/h (2 Bft) N-NE 22 2 min 0 W/m 4,1 C 11,6 C 14,8 km/h (3 Bft)
20/03/2012 13:20 11,4 C 61 % 1033,2 hPa 0,0 mm 7,6 km/h (2 Bft) N 360 2 min 0 W/m 4,2 C 11,4 C 8,6 km/h (2 Bft)
20/03/2012 13:30 11,5 C 60 % 1033,1 hPa 0,0 mm 7,6 km/h (2 Bft) NE 45 2 min 0 W/m 4,0 C 11,5 C 11,2 km/h (2 Bft)
20/03/2012 13:40 11,9 C 58 % 1033,1 hPa 0,0 mm 13,7 km/h (3 Bft) N-NE 22 2 min 0 W/m 3,9 C 11,9 C 17,3 km/h (3 Bft)
20/03/2012 13:50 12,0 C 57 % 1033,0 hPa 0,0 mm 8,6 km/h (2 Bft) NE 45 2 min 0 W/m 3,8 C 12,0 C 10,8 km/h (2 Bft)
20/03/2012 14:00 11,8 C 56 % 1033,0 hPa 0,0 mm 6,8 km/h (2 Bft) N-NE 22 2 min 0 W/m 3,3 C 11,8 C 6,8 km/h (2 Bft)
20/03/2012 14:10 11,6 C 56 % 1032,9 hPa 0,0 mm 7,9 km/h (2 Bft) NE 45 2 min 0 W/m 3,1 C 11,6 C 10,8 km/h (2 Bft)
20/03/2012 14:20 11,4 C 56 % 1032,8 hPa 0,0 mm 10,1 km/h (2 Bft) N-NO 337 2 min 0 W/m 2,9 C 11,4 C 16,6 km/h (3 Bft)
20/03/2012 14:30 11,4 C 55 % 1032,6 hPa 0,0 mm 7,9 km/h (2 Bft) N-NE 22 2 min 0 W/m 2,7 C 11,4 C 13,3 km/h (3 Bft)
20/03/2012 14:40 11,2 C 55 % 1032,6 hPa 0,0 mm 11,2 km/h (2 Bft) NE 45 2 min 0 W/m 2,5 C 11,2 C 17,3 km/h (3 Bft)
20/03/2012 14:50 11,0 C 55 % 1032,4 hPa 0,0 mm 5,8 km/h (2 Bft) N-NE 22 2 min 0 W/m 2,3 C 11,0 C 6,1 km/h (2 Bft)
20/03/2012 15:00 11,0 C 55 % 1032,3 hPa 0,0 mm 7,2 km/h (2 Bft) NE 45 2 min 0 W/m 2,3 C 11,0 C 10,4 km/h (2 Bft)
20/03/2012 15:10 11,1 C 56 % 1032,2 hPa 0,0 mm 5,8 km/h (2 Bft) N-NE 22 2 min 0 W/m 2,7 C 11,1 C 6,8 km/h (2 Bft)
20/03/2012 15:20 11,1 C 57 % 1032,1 hPa 0,0 mm 4,7 km/h (1 Bft) NE 45 2 min 0 W/m 2,9 C 11,1 C 8,6 km/h (2 Bft)
20/03/2012 15:30 11,2 C 54 % 1031,9 hPa 0,0 mm 4,7 km/h (1 Bft) N-NO 337 2 min 0 W/m 2,2 C 11,2 C 9,0 km/h (2 Bft)
20/03/2012 15:40 11,3 C 53 % 1031,7 hPa 0,0 mm 6,8 km/h (2 Bft) N-NE 22 2 min 0 W/m 2,1 C 11,3 C 9,7 km/h (2 Bft)
20/03/2012 15:50 11,4 C 53 % 1031,6 hPa 0,0 mm 8,6 km/h (2 Bft) NE 45 2 min 0 W/m 2,2 C 11,4 C 11,5 km/h (2 Bft)
20/03/2012 16:00 11,4 C 52 % 1031,4 hPa 0,0 mm 10,4 km/h (2 Bft) E-NE 67 2 min 0 W/m 1,9 C 11,4 C 14,0 km/h (3 Bft)
20/03/2012 16:10 11,5 C 52 % 1031,5 hPa 0,0 mm 5,0 km/h (1 Bft) E-NE 67 2 min 0 W/m 2,0 C 11,5 C 6,5 km/h (2 Bft)
20/03/2012 16:20 11,7 C 51 % 1031,5 hPa 0,0 mm 10,8 km/h (2 Bft) NE 45 2 min 0 W/m 1,9 C 11,7 C 18,4 km/h (3 Bft)
20/03/2012 16:30 11,8 C 51 % 1031,4 hPa 0,0 mm 6,8 km/h (2 Bft) NE 45 2 min 0 W/m 2,0 C 11,8 C 8,3 km/h (2 Bft)
20/03/2012 16:40 11,7 C 51 % 1031,4 hPa 0,0 mm 6,8 km/h (2 Bft) N-NE 22 2 min 0 W/m 1,9 C 11,7 C 12,6 km/h (3 Bft)
20/03/2012 16:50 11,5 C 52 % 1031,3 hPa 0,0 mm 9,7 km/h (2 Bft) NE 45 2 min 0 W/m 2,0 C 11,5 C 18,0 km/h (3 Bft)
20/03/2012 17:00 11,2 C 53 % 1031,3 hPa 0,0 mm 5,8 km/h (2 Bft) N-NE 22 2 min 0 W/m 2,0 C 11,2 C 8,6 km/h (2 Bft)
20/03/2012 17:10 11,1 C 54 % 1031,1 hPa 0,0 mm 6,5 km/h (2 Bft) NE 45 2 min 0 W/m 2,2 C 11,1 C 9,7 km/h (2 Bft)
20/03/2012 17:20 10,9 C 53 % 1031,1 hPa 0,0 mm 6,1 km/h (2 Bft) NE 45 2 min 0 W/m 1,7 C 10,9 C 10,1 km/h (2 Bft)
20/03/2012 17:30 10,8 C 55 % 1031,0 hPa 0,0 mm 7,6 km/h (2 Bft) N-NE 22 2 min 0 W/m 2,1 C 10,8 C 13,0 km/h (3 Bft)
20/03/2012 17:40 10,5 C 55 % 1031,0 hPa 0,0 mm 5,4 km/h (2 Bft) E-NE 67 2 min 0 W/m 1,8 C 10,5 C 7,2 km/h (2 Bft)
20/03/2012 17:50 10,4 C 56 % 1031,0 hPa 0,0 mm 4,3 km/h (1 Bft) N-NE 22 2 min 0 W/m 2,0 C 10,4 C 7,9 km/h (2 Bft)
20/03/2012 18:00 10,1 C 57 % 1031,1 hPa 0,0 mm 4,3 km/h (1 Bft) NE 45 2 min 0 W/m 2,0 C 10,1 C 4,3 km/h (1 Bft)
20/03/2012 18:10 9,9 C 57 % 1031,1 hPa 0,0 mm 5,4 km/h (2 Bft) NE 45 2 min 0 W/m 1,8 C 9,5 C 8,6 km/h (2 Bft)
20/03/2012 18:20 9,8 C 57 % 1031,1 hPa 0,0 mm 5,8 km/h (2 Bft) E-NE 67 2 min 0 W/m 1,7 C 9,3 C 7,6 km/h (2 Bft)
20/03/2012 18:30 9,6 C 58 % 1031,1 hPa 0,0 mm 1,4 km/h (1 Bft) E-NE 67 2 min 0 W/m 1,8 C 9,6 C 2,9 km/h (1 Bft)
20/03/2012 18:40 9,4 C 59 % 1031,1 hPa 0,0 mm 1,4 km/h (1 Bft) E-NE 67 2 min 0 W/m 1,8 C 9,4 C 4,0 km/h (1 Bft)
20/03/2012 18:50 9,1 C 59 % 1031,0 hPa 0,0 mm 0,0 km/h (0 Bft) NE 45 2 min 0 W/m 1,5 C 9,1 C 0,0 km/h (0 Bft)
20/03/2012 19:00 8,8 C 60 % 1031,0 hPa 0,0 mm 0,0 km/h (0 Bft) NE 45 0 min 0 W/m 1,5 C 8,8 C 0,0 km/h (0 Bft)
20/03/2012 19:10 8,3 C 61 % 1031,1 hPa 0,0 mm 0,0 km/h (0 Bft) E-NE 67 0 min 0 W/m 1,2 C 8,3 C 0,0 km/h (0 Bft)
20/03/2012 19:20 7,8 C 62 % 1031,1 hPa 0,0 mm 0,0 km/h (0 Bft) E-NE 67 0 min 0 W/m 1,0 C 7,8 C 0,0 km/h (0 Bft)
20/03/2012 19:30 7,3 C 63 % 1031,0 hPa 0,0 mm 0,0 km/h (0 Bft) E-NE 67 0 min 0 W/m 0,7 C 7,3 C 0,0 km/h (0 Bft)
20/03/2012 19:40 6,8 C 64 % 1031,0 hPa 0,0 mm 0,0 km/h (0 Bft) E-NE 67 0 min 0 W/m 0,5 C 6,8 C 0,0 km/h (0 Bft)
20/03/2012 19:50 6,2 C 65 % 1031,1 hPa 0,0 mm 0,0 km/h (0 Bft) E-NE 67 0 min 0 W/m 0,1 C 6,2 C 0,0 km/h (0 Bft)
20/03/2012 20:00 5,7 C 67 % 1031,3 hPa 0,0 mm 0,0 km/h (0 Bft) E-NE 67 0 min 0 W/m 0,1 C 5,7 C 0,0 km/h (0 Bft)
20/03/2012 20:10 5,3 C 68 % 1031,4 hPa 0,0 mm 0,0 km/h (0 Bft) E-NE 67 0 min 0 W/m -0,1 C 5,3 C 0,0 km/h (0 Bft)
20/03/2012 20:20 5,3 C 69 % 1031,4 hPa 0,0 mm 0,0 km/h (0 Bft) E-NE 67 0 min 0 W/m 0,1 C 5,3 C 0,0 km/h (0 Bft)
20/03/2012 20:30 5,1 C 70 % 1031,4 hPa 0,0 mm 0,0 km/h (0 Bft) E-NE 67 0 min 0 W/m 0,1 C 5,1 C 0,0 km/h (0 Bft)
20/03/2012 20:40 5,1 C 71 % 1031,2 hPa 0,0 mm 0,0 km/h (0 Bft) E-NE 67 0 min 0 W/m 0,3 C 5,1 C 0,0 km/h (0 Bft)
20/03/2012 20:50 5,1 C 72 % 1031,1 hPa 0,0 mm 0,0 km/h (0 Bft) E-NE 67 0 min 0 W/m 0,5 C 5,1 C 0,0 km/h (0 Bft)
20/03/2012 21:00 5,1 C 72 % 1031,1 hPa 0,0 mm 0,0 km/h (0 Bft) E-NE 67 0 min 0 W/m 0,5 C 5,1 C 0,0 km/h (0 Bft)
20/03/2012 21:10 4,9 C 72 % 1031,1 hPa 0,0 mm 0,0 km/h (0 Bft) E-NE 67 0 min 0 W/m 0,3 C 4,9 C 0,0 km/h (0 Bft)
20/03/2012 21:20 4,6 C 71 % 1031,1 hPa 0,0 mm 0,0 km/h (0 Bft) E-NE 67 0 min 0 W/m -0,2 C 4,6 C 0,0 km/h (0 Bft)
20/03/2012 21:30 4,5 C 73 % 1031,1 hPa 0,0 mm 0,0 km/h (0 Bft) E-NE 67 0 min 0 W/m 0,1 C 4,5 C 0,0 km/h (0 Bft)
20/03/2012 21:40 4,5 C 74 % 1031,2 hPa 0,0 mm 0,0 km/h (0 Bft) E-NE 67 0 min 0 W/m 0,3 C 4,5 C 0,0 km/h (0 Bft)
20/03/2012 21:50 4,4 C 74 % 1031,0 hPa 0,0 mm 0,4 km/h (0 Bft) E 90 0 min 0 W/m 0,2 C 4,4 C 0,4 km/h (0 Bft)
20/03/2012 22:00 4,6 C 74 % 1030,9 hPa 0,0 mm 0,0 km/h (0 Bft) E-NE 67 0 min 0 W/m 0,4 C 4,6 C 0,0 km/h (0 Bft)
20/03/2012 22:10 4,5 C 74 % 1031,0 hPa 0,0 mm 0,0 km/h (0 Bft) N-NE 22 0 min 0 W/m 0,3 C 4,5 C 0,0 km/h (0 Bft)
20/03/2012 22:20 4,4 C 74 % 1031,0 hPa 0,0 mm 0,7 km/h (0 Bft) NE 45 0 min 0 W/m 0,2 C 4,4 C 0,7 km/h (0 Bft)
20/03/2012 22:30 4,3 C 75 % 1031,0 hPa 0,0 mm 0,4 km/h (0 Bft) N 360 0 min 0 W/m 0,3 C 4,3 C 3,2 km/h (1 Bft)
20/03/2012 22:40 4,0 C 76 % 1031,0 hPa 0,0 mm 0,0 km/h (0 Bft) N 360 0 min 0 W/m 0,2 C 4,0 C 0,0 km/h (0 Bft)
20/03/2012 22:50 3,8 C 76 % 1031,2 hPa 0,0 mm 1,4 km/h (1 Bft) SE 135 0 min 0 W/m -0,0 C 3,8 C 4,0 km/h (1 Bft)
20/03/2012 23:00 3,8 C 77 % 1031,0 hPa 0,0 mm 2,2 km/h (1 Bft) NE 45 0 min 0 W/m 0,1 C 3,8 C 6,1 km/h (2 Bft)
20/03/2012 23:10 4,0 C 78 % 1031,0 hPa 0,0 mm 2,2 km/h (1 Bft) NE 45 0 min 0 W/m 0,5 C 4,0 C 3,6 km/h (1 Bft)
20/03/2012 23:20 4,2 C 79 % 1030,9 hPa 0,0 mm 2,5 km/h (1 Bft) N-NE 22 0 min 0 W/m 0,9 C 4,2 C 4,3 km/h (1 Bft)
20/03/2012 23:30 4,3 C 79 % 1030,9 hPa 0,0 mm 0,0 km/h (0 Bft) N-NE 22 0 min 0 W/m 1,0 C 4,3 C 0,0 km/h (0 Bft)
20/03/2012 23:40 4,0 C 79 % 1030,8 hPa 0,0 mm 0,0 km/h (0 Bft) N-NE 22 0 min 0 W/m 0,7 C 4,0 C 0,0 km/h (0 Bft)
20/03/2012 23:50 3,6 C 79 % 1030,8 hPa 0,0 mm 0,0 km/h (0 Bft) N-NE 22 0 min 0 W/m 0,3 C 3,6 C 0,0 km/h (0 Bft)
_ Min-Heure 07:00 16:40 23:50 - 23:50 - - - - 06:10 07:00 23:50
Minimum _ -1,9 C 51 % 1030,8 hPa - 0,0 km/h (0 Bft) - - - - -3,3 C -1,9 C 0,0 km/h (0 Bft)
_ Max-Heure 12:30 09:10 10:40 23:50 12:40 - - 18:50 23:50 11:30 12:30 12:40
Maximum _ 12,8 C 93 % 1034,4 hPa 0,0 mm 14,4 km/h
N-NE (3 Bft)
- - 2 min 0 W/m 5,3 C 12,8 C 22,7 km/h
N-NE (4 Bft)
Moyenne _ 5,2 C 75 % 1032,6 hPa #0,0 mm 2,5 km/h (1 Bft) N-NE - #2:22 h 0 W/m 0,7 C 5,2 C 3,9 km/h (1 Bft)
Saint Bonnet de Bellac- Haute Vienne - France